sat.trackr.live / text

‹ back to catalog

STARLINK-35195

NORAD 65606 · 2025-207Q

PAYLOAD ACTIVE UNKNOWN

§ Identity

Operator
Country
US
Launch date
2025-09-13
Launch site
AFWTR
Launch vehicle
Mass (kg)
RCS (m²)

Purposes: comms

External: N2YO · Heavens-Above · Gunter

§ Orbital elements

Epoch: 2026-05-25T03:55:39.016992Z

Period
95.64 min
Inclination
97.4474°
Eccentricity
0.0001253
Mean motion
15.05651857 rev/d
Perigee alt
548.6 km
Apogee alt
550.4 km
Semi-major
6,927.6 km
B*
1.1052e-4
RAAN
213.7566°
Arg perigee
117.6778°
Mean anomaly
242.4576°
Rev number
3,977

§ Raw data

STARLINK-351951 65606U 25207Q   26145.16364603  .00001537  00000+0  11052-3 0  99932 65606  97.4474 213.7566 0001253 117.6778 242.4576 15.05651857 39777

JSON: /api/v1/satellites/65606 · /tle

For live sub-satellite position, see the globe view (requires WebGL).

§ Visibility from observer

Set your observer location to see the next 7 days of passes ≥ 10°. The values pass through the URL so the page stays shareable.

No JS? Fill the form by hand. The geolocation button needs JavaScript.